Weather History for KBKN - February, 2013

Change the Weather History Date:

Saturday, February 16, 2013

  Actual Average (KPNC) Record (KPNC)
Temperature  
Mean Temperature 34 °F -  
Max Temperature 50 °F 48 °F 78 °F (1954)
Min Temperature 19 °F 25 °F 7 °F (2007)
Degree Days  
Heating Degree Days 30    
Moisture  
Dew Point 22 °F    
Average Humidity 63    
Maximum Humidity 86    
Minimum Humidity 34    
Precipitation  
Precipitation 0.00 in - - ()
Sea Level Pressure  
Sea Level Pressure 30.22 in    
Wind  
Wind Speed 10 mph (SW)    
Max Wind Speed 21 mph    
Max Gust Speed 26 mph    
Visibility 10 miles    
Events      
Averages and records for this station are not official NWS values.
T = Trace of Precipitation, MM = Missing Value Source: NWS Daily Summary

Daily Weather History Graph

Daily Weather History Graph

Search for Another Location

Airport or City:

Trip Planner

Search our weather history database for the weather conditions in past years. The results will help you decide how hot, cold, wet, or windy it might be!

Date:

Astronomy

Feb. 16, 2013 Rise Set
Actual Time 7:16 AM CST 6:11 PM CST
Civil Twilight 6:49 AM CST 6:37 PM CST
Nautical Twilight 6:19 AM CST 7:07 PM CST
Astronomical Twilight 5:49 AM CST 7:38 PM CST
Moon 10:41 AM CST (2/16) 12:01 AM CST (2/16)
Length of Visible Light 11h 47m
Length of Day
10h 55m
Waxing Crescent, 39% of the Moon is Illuminated
Feb 16
Waxing Crescent
Feb 17
First Quarter
Feb 25
Full
Mar 4
Last Quarter
Mar 11
New

Hourly Weather History & Observations

Time (CST) Temp. Windchill Dew Point Humidity Pressure Visibility Wind Dir Wind Speed Gust Speed Precip Events Conditions
12:15 AM 32.0 °F 22.5 °F 23.0 °F 69% 30.36 in 10.0 mi NNW 12.7 mph - N/A   Overcast
12:35 AM 32.0 °F 23.6 °F 21.2 °F 64% 30.36 in 10.0 mi NNW 10.4 mph - N/A   Overcast
12:55 AM 32.0 °F 22.1 °F 19.4 °F 60% 30.36 in 10.0 mi North 13.8 mph - N/A   Overcast
1:15 AM 32.0 °F 22.5 °F 17.6 °F 55% 30.37 in 10.0 mi North 12.7 mph - N/A   Overcast
1:35 AM 30.2 °F 21.3 °F 17.6 °F 60% 30.38 in 10.0 mi North 10.4 mph - N/A   Mostly Cloudy
1:55 AM 28.4 °F 20.4 °F 17.6 °F 64% 30.37 in 10.0 mi North 8.1 mph - N/A   Clear
2:15 AM 28.4 °F 20.4 °F 17.6 °F 64% 30.38 in 10.0 mi North 8.1 mph - N/A   Partly Cloudy
2:35 AM 26.6 °F 18.2 °F 19.4 °F 74% 30.38 in 10.0 mi NNW 8.1 mph - N/A   Partly Cloudy
2:55 AM 24.8 °F 16.1 °F 17.6 °F 74% 30.38 in 10.0 mi NW 8.1 mph - N/A   Clear
3:15 AM 26.6 °F 18.2 °F 17.6 °F 69% 30.37 in 10.0 mi NW 8.1 mph - N/A   Clear
3:35 AM 23.0 °F 13.9 °F 17.6 °F 80% 30.36 in 10.0 mi NNW 8.1 mph - N/A   Clear
3:55 AM 23.0 °F 14.7 °F 17.6 °F 80% 30.35 in 10.0 mi North 6.9 mph - N/A   Clear
4:15 AM 23.0 °F 14.7 °F 15.8 °F 74% 30.36 in 10.0 mi NNW 6.9 mph - N/A   Clear
4:35 AM 23.0 °F 14.7 °F 15.8 °F 74% 30.36 in 10.0 mi WNW 6.9 mph - N/A   Clear
4:55 AM 23.0 °F 14.7 °F 15.8 °F 74% 30.36 in 10.0 mi NW 6.9 mph - N/A   Clear
5:15 AM 23.0 °F 15.8 °F 15.8 °F 74% 30.36 in 10.0 mi WNW 5.8 mph - N/A   Clear
5:35 AM 19.4 °F 10.4 °F 15.8 °F 86% 30.36 in 10.0 mi West 6.9 mph - N/A   Clear
5:55 AM 19.4 °F 9.5 °F 15.8 °F 86% 30.36 in 10.0 mi WNW 8.1 mph - N/A   Clear
6:15 AM 21.2 °F 12.6 °F 15.8 °F 80% 30.36 in 10.0 mi West 6.9 mph - N/A   Clear
6:35 AM 19.4 °F 9.5 °F 15.8 °F 86% 30.36 in 10.0 mi West 8.1 mph - N/A   Clear
6:55 AM 19.4 °F 11.5 °F 15.8 °F 86% 30.36 in 10.0 mi West 5.8 mph - N/A   Clear
7:15 AM 19.4 °F 11.5 °F 15.8 °F 86% 30.36 in 10.0 mi WNW 5.8 mph - N/A   Clear
7:35 AM 19.4 °F 11.5 °F 15.8 °F 86% 30.35 in 10.0 mi West 5.8 mph - N/A   Clear
7:55 AM 21.2 °F - 15.8 °F 80% 30.35 in 10.0 mi Calm Calm - N/A   Clear
8:15 AM 23.0 °F - 15.8 °F 74% 30.35 in 10.0 mi Calm Calm - N/A   Clear
8:35 AM 24.8 °F - 17.6 °F 74% 30.36 in 10.0 mi Calm Calm - N/A   Clear
8:55 AM 26.6 °F - 17.6 °F 69% 30.36 in 10.0 mi Calm Calm - N/A   Clear
9:15 AM 26.6 °F 22.6 °F 17.6 °F 69% 30.35 in 10.0 mi SSW 3.5 mph - N/A   Clear
9:35 AM 28.4 °F 23.3 °F 17.6 °F 64% 30.35 in 10.0 mi SSW 4.6 mph - N/A   Clear
12:15 PM 35.6 °F 25.9 °F 15.8 °F 44% 30.28 in 10.0 mi South 16.1 mph - N/A   Overcast
12:35 PM 37.4 °F 28.9 °F 15.8 °F 41% 30.26 in 10.0 mi South 13.8 mph 19.6 mph N/A   Overcast
12:55 PM 37.4 °F 28.2 °F 14.0 °F 38% 30.23 in 10.0 mi South 16.1 mph - N/A   Overcast
1:15 PM 39.2 °F 30.5 °F 15.8 °F 39% 30.21 in 10.0 mi South 16.1 mph 19.6 mph N/A   Overcast
1:35 PM 41.0 °F 33.1 °F 15.8 °F 36% 30.19 in 10.0 mi South 15.0 mph 25.3 mph N/A   Mostly Cloudy
1:55 PM 41.0 °F 32.5 °F 17.6 °F 39% 30.17 in 10.0 mi South 17.3 mph 23.0 mph N/A   Partly Cloudy
2:15 PM 42.8 °F 35.1 °F 17.6 °F 36% 30.16 in 10.0 mi South 16.1 mph 24.2 mph N/A   Clear
2:35 PM 44.6 °F 37.4 °F 17.6 °F 34% 30.16 in 10.0 mi SW 16.1 mph 21.9 mph N/A   Mostly Cloudy
3:15 PM 46.4 °F 39.8 °F 21.2 °F 37% 30.14 in 10.0 mi SSW 16.1 mph 26.5 mph N/A   Clear
3:35 PM 46.4 °F 39.2 °F 23.0 °F 40% 30.13 in 10.0 mi SSW 18.4 mph 24.2 mph N/A   Mostly Cloudy
3:55 PM 48.2 °F - 24.8 °F 40% 30.12 in 10.0 mi SSW 20.7 mph 24.2 mph N/A   Overcast
4:15 PM 48.2 °F - 24.8 °F 40% 30.10 in 10.0 mi SSW 19.6 mph 23.0 mph N/A   Scattered Clouds
4:35 PM 50.0 °F - 26.6 °F 40% 30.09 in 10.0 mi SSW 20.7 mph - N/A   Clear
4:55 PM 50.0 °F - 26.6 °F 40% 30.08 in 10.0 mi SSW 18.4 mph - N/A   Clear
5:15 PM 50.0 °F - 28.4 °F 43% 30.07 in 10.0 mi SSW 17.3 mph - N/A   Clear
5:35 PM 48.2 °F - 28.4 °F 46% 30.06 in 10.0 mi SSW 15.0 mph - N/A   Clear
6:15 PM 44.6 °F 39.2 °F 32.0 °F 61% 30.06 in 10.0 mi South 10.4 mph - N/A   Clear
6:35 PM 44.6 °F 41.4 °F 32.0 °F 61% 30.05 in 10.0 mi SSE 5.8 mph - N/A   Clear
6:55 PM 42.8 °F 38.6 °F 30.2 °F 61% 30.05 in 10.0 mi SSE 6.9 mph - N/A   Clear
7:15 PM 41.0 °F 38.0 °F 30.2 °F 65% 30.05 in 10.0 mi SE 4.6 mph - N/A   Clear
7:35 PM 39.2 °F 33.6 °F 30.2 °F 70% 30.05 in 10.0 mi SE 8.1 mph - N/A   Clear
7:55 PM 39.2 °F 34.2 °F 32.0 °F 75% 30.04 in 10.0 mi SE 6.9 mph - N/A   Clear
8:15 PM 37.4 °F 32.1 °F 30.2 °F 75% 30.04 in 10.0 mi SE 6.9 mph - N/A   Clear
8:35 PM 39.2 °F 34.2 °F 32.0 °F 75% 30.04 in 10.0 mi SE 6.9 mph - N/A   Partly Cloudy
8:55 PM 39.2 °F 35.0 °F 32.0 °F 75% 30.04 in 10.0 mi SE 5.8 mph - N/A   Mostly Cloudy
9:15 PM 41.0 °F 37.1 °F 32.0 °F 70% 30.03 in 10.0 mi SE 5.8 mph - N/A   Overcast
9:35 PM 41.0 °F 37.1 °F 32.0 °F 70% 30.03 in 10.0 mi SSE 5.8 mph - N/A   Overcast
9:55 PM 42.8 °F 37.0 °F 32.0 °F 66% 30.03 in 10.0 mi South 10.4 mph - N/A   Overcast
10:15 PM 44.6 °F 39.7 °F 32.0 °F 61% 30.03 in 10.0 mi SSW 9.2 mph - N/A   Overcast
10:35 PM 44.6 °F 38.1 °F 32.0 °F 61% 30.03 in 10.0 mi SSW 13.8 mph - N/A   Overcast
10:55 PM 44.6 °F 38.8 °F 32.0 °F 61% 30.02 in 10.0 mi SSW 11.5 mph - N/A   Overcast
11:15 PM 41.0 °F 34.7 °F 32.0 °F 70% 30.02 in 10.0 mi SSW 10.4 mph - N/A   Scattered Clouds
11:35 PM 39.2 °F 33.0 °F 32.0 °F 75% 30.01 in 10.0 mi SSW 9.2 mph - N/A   Clear
11:55 PM 39.2 °F 32.5 °F 32.0 °F 75% 30.01 in 10.0 mi SSW 10.4 mph - N/A   Clear